TimeCST,TemperatureF,Dew PointF,Humidity,Sea Level PressureIn,VisibilityMPH,Wind Direction,Wind SpeedMPH,Gust SpeedMPH,PrecipitationIn,Events,Conditions,WindDirDegrees,DateUTC
12:15 AM,37.4,26.6,65,30.23,10.0,NW,12.7,-,N/A,,Clear,320,2013-03-06 06:15:00
12:35 AM,37.4,26.6,65,30.23,10.0,NW,11.5,-,N/A,,Clear,310,2013-03-06 06:35:00
12:55 AM,37.4,26.6,65,30.24,10.0,NW,13.8,-,N/A,,Clear,310,2013-03-06 06:55:00
1:15 AM,37.4,24.8,60,30.24,10.0,NW,16.1,21.9,N/A,,Clear,320,2013-03-06 07:15:00
1:35 AM,37.4,24.8,60,30.25,10.0,NW,13.8,-,N/A,,Clear,320,2013-03-06 07:35:00
1:55 AM,35.6,26.6,70,30.25,10.0,NNW,12.7,-,N/A,,Clear,330,2013-03-06 07:55:00
2:15 AM,35.6,26.6,70,30.25,10.0,NW,10.4,-,N/A,,Clear,320,2013-03-06 08:15:00
2:35 AM,33.8,26.6,75,30.25,10.0,NNW,9.2,-,N/A,,Clear,330,2013-03-06 08:35:00
2:55 AM,35.6,26.6,70,30.25,10.0,NNW,15.0,19.6,N/A,,Clear,330,2013-03-06 08:55:00
3:15 AM,33.8,24.8,70,30.25,10.0,NNW,12.7,-,N/A,,Clear,330,2013-03-06 09:15:00
3:55 AM,33.8,24.8,70,30.27,10.0,NW,12.7,-,N/A,,Clear,320,2013-03-06 09:55:00
4:15 AM,33.8,24.8,70,30.27,10.0,NW,11.5,-,N/A,,Clear,320,2013-03-06 10:15:00
4:35 AM,33.8,24.8,70,30.28,10.0,NW,13.8,-,N/A,,Clear,310,2013-03-06 10:35:00
4:55 AM,33.8,24.8,70,30.29,10.0,NW,10.4,-,N/A,,Clear,310,2013-03-06 10:55:00
5:55 AM,32.0,24.8,75,30.31,10.0,NW,11.5,-,N/A,,Clear,310,2013-03-06 11:55:00
6:35 AM,32.0,24.8,75,30.32,10.0,NW,11.5,-,N/A,,Clear,310,2013-03-06 12:35:00
6:55 AM,32.0,24.8,75,30.33,10.0,NW,11.5,-,N/A,,Scattered Clouds,310,2013-03-06 12:55:00
7:15 AM,32.0,24.8,75,30.34,10.0,NW,12.7,-,N/A,,Clear,320,2013-03-06 13:15:00
7:35 AM,33.8,26.6,75,30.35,10.0,NW,12.7,-,N/A,,Scattered Clouds,320,2013-03-06 13:35:00
7:55 AM,35.6,26.6,70,30.36,10.0,NNW,16.1,-,N/A,,Scattered Clouds,330,2013-03-06 13:55:00
8:15 AM,35.6,26.6,70,30.37,10.0,NNW,16.1,-,N/A,,Clear,340,2013-03-06 14:15:00
8:35 AM,37.4,26.6,65,30.37,10.0,NNW,19.6,27.6,N/A,,Clear,340,2013-03-06 14:35:00
8:55 AM,37.4,24.8,60,30.38,10.0,NNW,19.6,24.2,N/A,,Scattered Clouds,340,2013-03-06 14:55:00
9:15 AM,37.4,24.8,60,30.38,10.0,North,20.7,26.5,N/A,,Mostly Cloudy,360,2013-03-06 15:15:00
9:35 AM,37.4,24.8,60,30.39,10.0,NNW,19.6,-,N/A,,Mostly Cloudy,340,2013-03-06 15:35:00
9:55 AM,37.4,24.8,60,30.39,10.0,North,16.1,23.0,N/A,,Overcast,350,2013-03-06 15:55:00
10:15 AM,41.0,26.6,57,30.39,10.0,North,15.0,24.2,N/A,,Mostly Cloudy,360,2013-03-06 16:15:00
10:35 AM,41.0,26.6,57,30.39,10.0,North,18.4,-,N/A,,Mostly Cloudy,350,2013-03-06 16:35:00
10:55 AM,41.0,26.6,57,30.39,10.0,North,12.7,-,N/A,,Mostly Cloudy,10,2013-03-06 16:55:00
11:15 AM,41.0,26.6,57,30.39,10.0,North,11.5,23.0,N/A,,Scattered Clouds,350,2013-03-06 17:15:00
11:35 AM,41.0,28.4,61,30.39,10.0,North,10.4,17.3,N/A,,Scattered Clouds,350,2013-03-06 17:35:00
11:55 AM,41.0,26.6,57,30.39,10.0,NNW,12.7,19.6,N/A,,Scattered Clouds,340,2013-03-06 17:55:00
12:15 PM,41.0,28.4,61,30.39,10.0,NNW,11.5,18.4,N/A,,Scattered Clouds,330,2013-03-06 18:15:00
12:35 PM,42.8,28.4,57,30.38,10.0,North,6.9,17.3,N/A,,Scattered Clouds,350,2013-03-06 18:35:00
12:55 PM,42.8,28.4,57,30.37,10.0,North,8.1,-,N/A,,Scattered Clouds,350,2013-03-06 18:55:00
1:15 PM,42.8,28.4,57,30.36,10.0,North,6.9,-,N/A,,Scattered Clouds,360,2013-03-06 19:15:00
1:35 PM,42.8,28.4,57,30.36,10.0,North,8.1,16.1,N/A,,Clear,360,2013-03-06 19:35:00
1:55 PM,42.8,28.4,57,30.35,10.0,North,9.2,-,N/A,,Clear,350,2013-03-06 19:55:00
2:15 PM,44.6,30.2,57,30.35,10.0,NNW,6.9,-,N/A,,Clear,330,2013-03-06 20:15:00
2:35 PM,44.6,30.2,57,30.35,10.0,NNW,6.9,-,N/A,,Clear,340,2013-03-06 20:35:00
2:55 PM,44.6,30.2,57,30.34,10.0,North,8.1,-,N/A,,Clear,10,2013-03-06 20:55:00
3:15 PM,44.6,30.2,57,30.33,10.0,North,9.2,-,N/A,,Clear,10,2013-03-06 21:15:00
3:35 PM,44.6,30.2,57,30.33,10.0,North,9.2,-,N/A,,Clear,360,2013-03-06 21:35:00
3:55 PM,44.6,30.2,57,30.33,10.0,North,10.4,-,N/A,,Clear,10,2013-03-06 21:55:00
4:15 PM,44.6,30.2,57,30.33,10.0,North,8.1,-,N/A,,Clear,350,2013-03-06 22:15:00
4:35 PM,44.6,30.2,57,30.33,10.0,NNW,6.9,-,N/A,,Clear,340,2013-03-06 22:35:00
4:55 PM,42.8,30.2,61,30.33,10.0,North,10.4,-,N/A,,Clear,360,2013-03-06 22:55:00
5:15 PM,42.8,30.2,61,30.33,10.0,North,8.1,-,N/A,,Clear,10,2013-03-06 23:15:00
5:35 PM,42.8,30.2,61,30.33,10.0,North,8.1,-,N/A,,Clear,360,2013-03-06 23:35:00
5:55 PM,41.0,30.2,65,30.33,10.0,North,6.9,-,N/A,,Clear,360,2013-03-06 23:55:00
6:15 PM,41.0,32.0,70,30.33,10.0,NNE,5.8,-,N/A,,Clear,30,2013-03-07 00:15:00
6:35 PM,37.4,32.0,81,30.34,10.0,NNE,4.6,-,N/A,,Clear,20,2013-03-07 00:35:00
6:55 PM,37.4,32.0,81,30.34,10.0,NNE,4.6,-,N/A,,Clear,20,2013-03-07 00:55:00
7:15 PM,37.4,32.0,81,30.35,10.0,NNE,4.6,-,N/A,,Clear,30,2013-03-07 01:15:00
7:35 PM,37.4,32.0,81,30.34,10.0,NE,4.6,-,N/A,,Clear,50,2013-03-07 01:35:00
7:55 PM,35.6,32.0,87,30.34,10.0,NE,4.6,-,N/A,,Clear,50,2013-03-07 01:55:00
8:15 PM,35.6,32.0,87,30.34,10.0,NNE,4.6,-,N/A,,Clear,30,2013-03-07 02:15:00
8:35 PM,35.6,32.0,87,30.34,10.0,NE,3.5,-,N/A,,Clear,40,2013-03-07 02:35:00
8:55 PM,35.6,32.0,87,30.34,10.0,ENE,4.6,-,N/A,,Clear,60,2013-03-07 02:55:00
9:15 PM,37.4,32.0,81,30.35,10.0,Calm,Calm,-,N/A,,Clear,0,2013-03-07 03:15:00
9:35 PM,37.4,32.0,81,30.34,10.0,Calm,Calm,-,N/A,,Clear,0,2013-03-07 03:35:00
9:55 PM,37.4,32.0,81,30.34,10.0,Calm,Calm,-,N/A,,Clear,0,2013-03-07 03:55:00
10:15 PM,35.6,32.0,87,30.34,10.0,Calm,Calm,-,N/A,,Clear,0,2013-03-07 04:15:00
10:35 PM,35.6,32.0,87,30.33,10.0,ENE,4.6,-,N/A,,Clear,70,2013-03-07 04:35:00
10:55 PM,35.6,30.2,81,30.33,10.0,ENE,3.5,-,N/A,,Clear,60,2013-03-07 04:55:00
11:15 PM,33.8,30.2,87,30.33,10.0,Calm,Calm,-,N/A,,Clear,0,2013-03-07 05:15:00
11:35 PM,33.8,30.2,87,30.33,10.0,East,3.5,-,N/A,,Clear,90,2013-03-07 05:35:00
11:55 PM,33.8,30.2,87,30.33,10.0,East,4.6,-,N/A,,Clear,100,2013-03-07 05:55:00